Wheeler AAF, HI

3:32 PM HST on October 20, 2017 (GMT -1000)
Wheeler Army Air Field

Weather History for PHHI - January, 2013

Change the Weather History Date:

Thursday, January 3, 2013

  Actual Average Record
Temperature  
Mean Temperature 68 °F -  
Max Temperature 71 °F 74 °F 82 °F (2006)
Min Temperature 66 °F 60 °F 59 °F (2000)
Cooling Degree Days 4    
Growing Degree Days 18 (Base 50)    
Moisture  
Dew Point 65 °F    
Average Humidity 90    
Maximum Humidity 95    
Minimum Humidity 83    
Precipitation  
Precipitation 0.11 in - - ()
Sea Level Pressure  
Sea Level Pressure 30.03 in    
Wind  
Wind Speed 6 mph (North)    
Max Wind Speed 15 mph    
Max Gust Speed 22 mph    
Visibility 9 miles    
Events Rain    
Averages and records for this station are not official NWS values.
T = Trace of Precipitation, MM = Missing Value Source: NWS Daily Summary

Daily Weather History Graph

Daily Weather History Graph

Search for Another Location

Airport or City:

Trip Planner

Search our weather history database for the weather conditions in past years. The results will help you decide how hot, cold, wet, or windy it might be!

Date:

Astronomy

Jan. 03, 2013 Rise Set
Actual Time 7:10 AM HST 6:03 PM HST
Civil Twilight 6:46 AM HST 6:27 PM HST
Nautical Twilight 6:19 AM HST 6:54 PM HST
Astronomical Twilight 5:51 AM HST 7:22 PM HST
Moon 11:56 PM HST (1/3) 11:17 AM HST (1/3)
Length of Visible Light 11h 40m
Length of Day
10h 52m
Waning Gibbous, 63% of the Moon is Illuminated
Jan 3
Waning Gibbous
Jan 4
Last Quarter
Jan 11
New
Jan 18
First Quarter
Jan 26
Full

Hourly Weather History & Observations

Time (HST) Temp. Dew Point Humidity Pressure Visibility Wind Dir Wind Speed Gust Speed Precip Events Conditions
12:00 AM 66.2 °F 64.4 °F 94% 30.02 in 10.0 mi WNW 4.6 mph - N/A   Mostly Cloudy
12:03 AM 66.2 °F 64.4 °F 94% 30.02 in 10.0 mi West 4.6 mph - N/A   Scattered Clouds
12:11 AM 66.2 °F 64.4 °F 94% 30.03 in 10.0 mi West 3.5 mph - N/A   Scattered Clouds
12:12 AM 66.2 °F 64.4 °F 94% 30.03 in 10.0 mi West 4.6 mph - N/A   Scattered Clouds
12:15 AM 66.2 °F 64.4 °F 94% 30.03 in 10.0 mi West 4.6 mph - N/A   Mostly Cloudy
12:17 AM 66.2 °F 64.4 °F 94% 30.03 in 10.0 mi West 4.6 mph - N/A   Mostly Cloudy
12:18 AM 66.2 °F 64.4 °F 94% 30.03 in 9.0 mi West 4.6 mph - N/A   Light Drizzle
12:19 AM 66.2 °F 64.4 °F 94% 30.03 in 9.0 mi West 4.6 mph - N/A   Light Drizzle
12:21 AM 66.2 °F 64.4 °F 94% 30.03 in 7.0 mi WNW 4.6 mph - N/A   Light Drizzle
12:22 AM 66.2 °F 64.4 °F 94% 30.03 in 7.0 mi WNW 4.6 mph - N/A   Drizzle
12:55 AM 66.6 °F 65.1 °F 95% 30.02 in 9.0 mi NW 4.6 mph - 0.01 in   Light Drizzle
12:57 AM 66.2 °F 64.4 °F 94% 30.02 in 9.0 mi NW 4.6 mph - N/A   Light Drizzle
12:59 AM 66.2 °F 64.4 °F 94% 30.02 in 10.0 mi NW 5.8 mph - N/A   Scattered Clouds
1:00 AM 66.2 °F 64.4 °F 94% 30.02 in 10.0 mi NW 5.8 mph - N/A   Light Drizzle
1:07 AM 66.2 °F 64.4 °F 94% 30.02 in 6.0 mi NNW 3.5 mph - N/A Rain Light Rain
1:17 AM 66.2 °F 64.4 °F 94% 30.01 in 7.0 mi NW 3.5 mph - N/A   Light Drizzle
1:37 AM 66.2 °F 64.4 °F 94% 30.01 in 10.0 mi NW 5.8 mph - N/A   Partly Cloudy
1:39 AM 66.2 °F 64.4 °F 94% 30.01 in 9.0 mi NW 5.8 mph - N/A   Light Drizzle
1:51 AM 66.2 °F 64.4 °F 94% 30.01 in 10.0 mi NNW 4.6 mph - N/A   Clear
1:55 AM 66.6 °F 64.9 °F 95% 30.00 in 10.0 mi NW 5.8 mph - 0.01 in   Clear
2:15 AM 66.2 °F 64.4 °F 94% 30.00 in 10.0 mi NW 4.6 mph - N/A   Light Drizzle
2:25 AM 66.2 °F 64.4 °F 94% 30.00 in 9.0 mi WNW 4.6 mph - N/A   Light Drizzle
2:27 AM 66.2 °F 64.4 °F 94% 30.00 in 10.0 mi NW 5.8 mph - N/A   Light Drizzle
2:39 AM 66.2 °F 64.4 °F 94% 29.99 in 7.0 mi NW 4.6 mph - N/A   Light Drizzle
2:50 AM 66.2 °F 64.4 °F 94% 29.99 in 5.0 mi NNW 5.8 mph - N/A Rain Rain
2:55 AM 66.2 °F 64.8 °F 95% 29.99 in 6.0 mi NNW 4.6 mph - 0.02 in Rain Light Rain
3:01 AM 66.2 °F 64.4 °F 94% 29.99 in 9.0 mi NW 6.9 mph - N/A   Mostly Cloudy
3:02 AM 66.2 °F 64.4 °F 94% 29.99 in 9.0 mi NW 6.9 mph - N/A   Light Drizzle
3:08 AM 66.2 °F 64.4 °F 94% 29.99 in 10.0 mi NW 5.8 mph - N/A   Light Drizzle
3:09 AM 66.2 °F 64.4 °F 94% 29.99 in 10.0 mi NW 6.9 mph - N/A   Scattered Clouds
3:24 AM 66.2 °F 64.4 °F 94% 29.99 in 9.0 mi NW 3.5 mph - N/A   Light Drizzle
3:40 AM 66.2 °F 64.4 °F 94% 29.99 in 10.0 mi WNW 4.6 mph - N/A   Partly Cloudy
3:49 AM 66.2 °F 64.4 °F 94% 29.99 in 8.0 mi NW 6.9 mph - N/A Rain Light Rain
3:54 AM 66.2 °F 64.4 °F 94% 29.99 in 5.0 mi NW 5.8 mph - N/A Rain Light Rain
3:55 AM 66.0 °F 64.6 °F 95% 29.99 in 5.0 mi NW 5.8 mph - 0.01 in Rain Light Rain
3:57 AM 66.2 °F 64.4 °F 94% 29.99 in 4.0 mi NW 4.6 mph - N/A Rain Light Rain
4:23 AM 66.2 °F 64.4 °F 94% 29.99 in 9.0 mi NNW 5.8 mph - N/A   Light Drizzle
4:32 AM 66.2 °F 64.4 °F 94% 29.98 in 10.0 mi NW 5.8 mph - N/A   Partly Cloudy
4:43 AM 66.2 °F 64.4 °F 94% 29.98 in 9.0 mi NW 5.8 mph - N/A   Light Drizzle
4:55 AM 66.0 °F 64.6 °F 95% 29.98 in 10.0 mi NW 5.8 mph - 0.01 in   Clear
5:03 AM 66.2 °F 64.4 °F 94% 29.98 in 9.0 mi NW 5.8 mph - N/A   Light Drizzle
5:18 AM 66.2 °F 64.4 °F 94% 29.99 in 9.0 mi NW 6.9 mph - N/A   Partly Cloudy
5:23 AM 66.2 °F 64.4 °F 94% 29.99 in 9.0 mi NW 6.9 mph - N/A   Light Drizzle
5:34 AM 66.2 °F 64.4 °F 94% 29.99 in 10.0 mi NW 6.9 mph - N/A   Partly Cloudy
5:42 AM 66.2 °F 64.4 °F 94% 29.99 in 9.0 mi NW 5.8 mph - N/A   Drizzle
5:55 AM 66.0 °F 64.6 °F 95% 29.99 in 10.0 mi NW 5.8 mph - 0.00 in   Light Drizzle
6:00 AM 66.2 °F 64.4 °F 94% 29.99 in 8.0 mi NW 5.8 mph - N/A   Light Drizzle
6:10 AM 66.2 °F 64.4 °F 94% 29.99 in 10.0 mi NW 5.8 mph - N/A   Mostly Cloudy
6:12 AM 66.2 °F 64.4 °F 94% 29.99 in 10.0 mi NW 4.6 mph - N/A   Scattered Clouds
6:21 AM 66.2 °F 64.4 °F 94% 29.99 in 10.0 mi NW 5.8 mph - N/A   Light Drizzle
6:33 AM 66.2 °F 64.4 °F 94% 29.99 in 10.0 mi NW 6.9 mph - N/A   Partly Cloudy
6:55 AM 66.0 °F 64.6 °F 95% 30.00 in 10.0 mi NW 5.8 mph - 0.01 in   Clear
7:00 AM 66.2 °F 64.4 °F 94% 30.00 in 9.0 mi NW 9.2 mph - N/A   Light Drizzle
7:24 AM 66.2 °F 64.4 °F 94% 30.01 in 10.0 mi NW 6.9 mph - N/A   Partly Cloudy
7:30 AM 66.2 °F 64.4 °F 94% 30.01 in 8.0 mi NNW 6.9 mph - N/A   Light Drizzle
7:36 AM 66.2 °F 64.4 °F 94% 30.02 in 8.0 mi NNW 6.9 mph - N/A   Clear
7:55 AM 66.2 °F 64.8 °F 95% 30.03 in 10.0 mi NW 5.8 mph - 0.00 in   Clear
8:35 AM 66.2 °F 64.4 °F 94% 30.04 in 7.0 mi NW 4.6 mph - N/A Rain Light Rain
8:42 AM 68.0 °F 66.2 °F 94% 30.04 in 6.0 mi NW 5.8 mph - N/A Rain Light Rain
8:45 AM 68.0 °F 66.2 °F 94% 30.04 in 6.0 mi NW 5.8 mph - N/A   Light Drizzle
8:55 AM 67.3 °F 65.8 °F 95% 30.04 in 6.0 mi NW 5.8 mph - 0.00 in   Light Drizzle
8:58 AM 68.0 °F 66.2 °F 94% 30.04 in 7.0 mi NW 5.8 mph - N/A   Light Drizzle
9:05 AM 68.0 °F 66.2 °F 94% 30.04 in 10.0 mi Variable 3.5 mph - N/A   Scattered Clouds
9:09 AM 68.0 °F 66.2 °F 94% 30.05 in 10.0 mi Variable 5.8 mph - N/A   Scattered Clouds
9:35 AM 68.0 °F 66.2 °F 94% 30.05 in 10.0 mi North 4.6 mph - N/A   Mostly Cloudy
9:37 AM 68.0 °F 66.2 °F 94% 30.05 in 10.0 mi NNE 5.8 mph - N/A   Light Drizzle
9:38 AM 68.0 °F 66.2 °F 94% 30.05 in 10.0 mi NNE 5.8 mph - N/A   Light Drizzle
9:40 AM 68.0 °F 66.2 °F 94% 30.05 in 10.0 mi Variable 4.6 mph - N/A   Light Drizzle
9:49 AM 68.0 °F 66.2 °F 94% 30.06 in 10.0 mi NNE 9.2 mph - N/A   Scattered Clouds
9:55 AM 68.7 °F 66.4 °F 92% 30.06 in 10.0 mi North 8.1 mph - 0.01 in   Scattered Clouds
9:57 AM 68.0 °F 66.2 °F 94% 30.06 in 10.0 mi North 8.1 mph - N/A   Scattered Clouds
9:58 AM 68.0 °F 66.2 °F 94% 30.06 in 10.0 mi North 6.9 mph - N/A   Light Drizzle
10:02 AM 68.0 °F 66.2 °F 94% 30.06 in 10.0 mi NNE 8.1 mph - N/A   Light Drizzle
10:03 AM 68.0 °F 66.2 °F 94% 30.06 in 10.0 mi North 8.1 mph - N/A   Light Drizzle
10:05 AM 68.0 °F 66.2 °F 94% 30.06 in 10.0 mi NNE 5.8 mph - N/A   Light Drizzle
10:06 AM 68.0 °F 66.2 °F 94% 30.06 in 10.0 mi NNE 5.8 mph - N/A   Scattered Clouds
10:29 AM 69.8 °F 66.2 °F 88% 30.06 in 10.0 mi ENE 3.5 mph - N/A   Mostly Cloudy
10:33 AM 69.8 °F 66.2 °F 88% 30.05 in 9.0 mi NE 3.5 mph - N/A   Light Drizzle
10:34 AM 69.8 °F 66.2 °F 88% 30.05 in 8.0 mi NE 3.5 mph - N/A   Light Drizzle
10:36 AM 69.8 °F 66.2 °F 88% 30.05 in 7.0 mi Calm Calm - N/A   Light Drizzle
10:38 AM 69.8 °F 66.2 °F 88% 30.05 in 6.0 mi Calm Calm - N/A   Light Drizzle
10:39 AM 69.8 °F 66.2 °F 88% 30.05 in 6.0 mi Calm Calm - N/A   Light Drizzle
10:40 AM 69.8 °F 66.2 °F 88% 30.05 in 6.0 mi Calm Calm - N/A   Light Drizzle
10:41 AM 69.8 °F 66.2 °F 88% 30.05 in 5.0 mi Calm Calm - N/A   Light Drizzle
10:55 AM 69.4 °F 66.7 °F 91% 30.05 in 9.0 mi NNE 4.6 mph - 0.00 in   Light Drizzle
10:59 AM 69.8 °F 66.2 °F 88% 30.04 in 9.0 mi NNE 3.5 mph - N/A   Mostly Cloudy
11:01 AM 69.8 °F 66.2 °F 88% 30.04 in 9.0 mi Calm Calm - N/A   Light Drizzle
11:02 AM 69.8 °F 66.2 °F 88% 30.04 in 9.0 mi NE 3.5 mph - N/A   Light Drizzle
11:09 AM 69.8 °F 66.2 °F 88% 30.04 in 7.0 mi Calm Calm - N/A   Light Drizzle
11:13 AM 69.8 °F 66.2 °F 88% 30.04 in 7.0 mi ESE 4.6 mph - N/A   Light Drizzle
11:20 AM 69.8 °F 68.0 °F 94% 30.04 in 9.0 mi East 9.2 mph - N/A   Scattered Clouds
11:31 AM 69.8 °F 66.2 °F 88% 30.04 in 9.0 mi East 6.9 mph - N/A   Mostly Cloudy
11:33 AM 69.8 °F 66.2 °F 88% 30.04 in 7.0 mi East 5.8 mph - N/A   Light Drizzle
11:34 AM 69.8 °F 66.2 °F 88% 30.04 in 6.0 mi East 5.8 mph - N/A   Light Drizzle
11:36 AM 69.8 °F 66.2 °F 88% 30.04 in 5.0 mi East 4.6 mph - N/A   Light Drizzle
11:39 AM 69.8 °F 66.2 °F 88% 30.04 in 4.0 mi Variable 6.9 mph - N/A   Light Drizzle
11:40 AM 69.8 °F 66.2 °F 88% 30.04 in 4.0 mi Variable 6.9 mph - N/A   Light Drizzle
11:45 AM 69.8 °F 66.2 °F 88% 30.04 in 6.0 mi NE 6.9 mph - N/A   Light Drizzle
11:50 AM 69.8 °F 66.2 °F 88% 30.03 in 10.0 mi NNE 5.8 mph - N/A   Mostly Cloudy
11:54 AM 69.8 °F 66.2 °F 88% 30.03 in 9.0 mi Variable 3.5 mph - N/A   Mostly Cloudy
11:55 AM 69.3 °F 66.2 °F 90% 30.03 in 8.0 mi Variable 4.6 mph - 0.00 in   Light Drizzle
11:56 AM 69.8 °F 66.2 °F 88% 30.03 in 8.0 mi Variable 5.8 mph - N/A   Light Drizzle
12:01 PM 69.8 °F 66.2 °F 88% 30.03 in 7.0 mi NE 9.2 mph - N/A   Light Drizzle
12:05 PM 69.8 °F 66.2 °F 88% 30.03 in 9.0 mi NE 6.9 mph - N/A   Mostly Cloudy
12:08 PM 69.8 °F 66.2 °F 88% 30.03 in 10.0 mi NE 4.6 mph - N/A   Mostly Cloudy
12:10 PM 69.8 °F 66.2 °F 88% 30.03 in 10.0 mi NE 5.8 mph - N/A   Mostly Cloudy
12:17 PM 69.8 °F 66.2 °F 88% 30.02 in 10.0 mi NNE 9.2 mph - N/A   Overcast
12:29 PM 69.8 °F 66.2 °F 88% 30.02 in 10.0 mi NE 11.5 mph 17.3 mph N/A   Overcast
12:37 PM 71.6 °F 66.2 °F 83% 30.01 in 10.0 mi ENE 10.4 mph 17.3 mph N/A   Overcast
12:45 PM 69.8 °F 66.2 °F 88% 30.01 in 10.0 mi NE 15.0 mph 21.9 mph N/A   Overcast
12:49 PM 69.8 °F 66.2 °F 88% 30.01 in 10.0 mi ENE 12.7 mph 21.9 mph N/A   Mostly Cloudy
12:50 PM 69.8 °F 66.2 °F 88% 30.01 in 10.0 mi ENE 12.7 mph 21.9 mph N/A   Overcast
12:55 PM 70.5 °F 66.2 °F 86% 30.01 in 10.0 mi ENE 11.5 mph - 0.00 in   Mostly Cloudy
1:01 PM 69.8 °F 66.2 °F 88% 30.01 in 10.0 mi ENE 9.2 mph - N/A   Light Drizzle
1:06 PM 69.8 °F 66.2 °F 88% 30.01 in 9.0 mi ENE 10.4 mph - N/A   Light Drizzle
1:10 PM 71.6 °F 66.2 °F 83% 30.00 in 10.0 mi Variable 6.9 mph - N/A   Mostly Cloudy
1:13 PM 71.6 °F 66.2 °F 83% 30.00 in 10.0 mi ENE 11.5 mph - N/A   Mostly Cloudy
1:15 PM 71.6 °F 66.2 °F 83% 30.00 in 10.0 mi East 8.1 mph - N/A   Mostly Cloudy
1:16 PM 71.6 °F 66.2 °F 83% 30.00 in 10.0 mi East 6.9 mph - N/A   Mostly Cloudy
1:17 PM 71.6 °F 66.2 °F 83% 30.00 in 10.0 mi NE 8.1 mph - N/A   Mostly Cloudy
1:36 PM 71.6 °F 66.2 °F 83% 29.99 in 10.0 mi ENE 13.8 mph - N/A   Mostly Cloudy
1:53 PM 71.6 °F 66.2 °F 83% 29.99 in 10.0 mi NE 10.4 mph - N/A   Mostly Cloudy
1:55 PM 71.2 °F 66.0 °F 84% 29.99 in 10.0 mi ENE 9.2 mph - 0.00 in   Mostly Cloudy
1:58 PM 71.6 °F 66.2 °F 83% 29.99 in 10.0 mi NE 8.1 mph - N/A   Mostly Cloudy
2:00 PM 71.6 °F 66.2 °F 83% 29.99 in 10.0 mi NE 9.2 mph - N/A   Mostly Cloudy
2:02 PM 71.6 °F 66.2 °F 83% 29.99 in 10.0 mi ENE 8.1 mph - N/A   Mostly Cloudy
2:04 PM 71.6 °F 66.2 °F 83% 29.99 in 10.0 mi NE 10.4 mph - N/A   Mostly Cloudy
2:10 PM 71.6 °F 66.2 °F 83% 29.99 in 10.0 mi NE 9.2 mph - N/A   Mostly Cloudy
2:13 PM 71.6 °F 66.2 °F 83% 29.99 in 8.0 mi NE 9.2 mph - N/A Rain Light Rain
2:14 PM 71.6 °F 66.2 °F 83% 29.99 in 7.0 mi NE 9.2 mph - N/A Rain Light Rain
2:25 PM 69.8 °F 66.2 °F 88% 29.99 in 4.0 mi NNE 8.1 mph - N/A   Light Drizzle
2:55 PM 69.6 °F 66.0 °F 88% 29.99 in 7.0 mi NE 6.9 mph - 0.01 in   Light Drizzle
3:05 PM 69.8 °F 66.2 °F 88% 29.99 in 7.0 mi NE 12.7 mph - N/A   Light Drizzle
3:07 PM 69.8 °F 66.2 °F 88% 29.99 in 8.0 mi NE 9.2 mph - N/A   Light Drizzle
3:11 PM 69.8 °F 66.2 °F 88% 29.99 in 9.0 mi NE 9.2 mph - N/A   Scattered Clouds
3:13 PM 69.8 °F 66.2 °F 88% 29.99 in 8.0 mi NNE 8.1 mph - N/A   Scattered Clouds
3:16 PM 69.8 °F 66.2 °F 88% 29.99 in 8.0 mi NE 8.1 mph - N/A   Light Drizzle
3:26 PM 69.8 °F 66.2 °F 88% 29.99 in 10.0 mi NNE 9.2 mph - N/A   Partly Cloudy
3:37 PM 69.8 °F 66.2 °F 88% 29.99 in 10.0 mi North 8.1 mph - N/A   Light Drizzle
3:50 PM 69.8 °F 66.2 °F 88% 30.00 in 10.0 mi North 6.9 mph - N/A   Partly Cloudy
3:55 PM 69.1 °F 65.5 °F 88% 30.00 in 10.0 mi NE 9.2 mph - 0.00 in   Partly Cloudy
4:09 PM 68.0 °F 64.4 °F 88% 30.00 in 10.0 mi NNE 6.9 mph - N/A   Partly Cloudy
4:12 PM 68.0 °F 64.4 °F 88% 30.00 in 10.0 mi Variable 6.9 mph - N/A   Partly Cloudy
4:16 PM 69.8 °F 64.4 °F 83% 30.00 in 9.0 mi North 5.8 mph - N/A   Light Drizzle
4:17 PM 69.8 °F 64.4 °F 83% 30.00 in 9.0 mi North 5.8 mph - N/A   Light Drizzle
4:29 PM 68.0 °F 64.4 °F 88% 30.00 in 10.0 mi Variable 6.9 mph - N/A   Scattered Clouds
4:45 PM 68.0 °F 64.4 °F 88% 30.01 in 10.0 mi NE 9.2 mph - N/A   Mostly Cloudy
4:55 PM 68.9 °F 64.4 °F 86% 30.01 in 10.0 mi North 4.6 mph - 0.00 in   Light Drizzle
4:56 PM 68.0 °F 64.4 °F 88% 30.01 in 10.0 mi Variable 3.5 mph - N/A   Light Drizzle
5:01 PM 68.0 °F 64.4 °F 88% 30.01 in 10.0 mi North 5.8 mph - N/A   Light Drizzle
5:11 PM 68.0 °F 64.4 °F 88% 30.01 in 10.0 mi Variable 5.8 mph - N/A   Light Drizzle
5:13 PM 68.0 °F 64.4 °F 88% 30.01 in 10.0 mi Variable 6.9 mph - N/A   Light Drizzle
5:22 PM 68.0 °F 64.4 °F 88% 30.01 in 9.0 mi North 3.5 mph - N/A   Light Drizzle
5:26 PM 68.0 °F 64.4 °F 88% 30.01 in 10.0 mi North 3.5 mph - N/A   Scattered Clouds
5:29 PM 68.0 °F 64.4 °F 88% 30.01 in 10.0 mi NNE 5.8 mph - N/A   Light Drizzle
5:55 PM 67.6 °F 64.4 °F 89% 30.03 in 10.0 mi North 5.8 mph - 0.00 in   Light Drizzle
6:16 PM 68.0 °F 64.4 °F 88% 30.03 in 7.0 mi NNW 5.8 mph - N/A Rain Light Rain
6:17 PM 68.0 °F 64.4 °F 88% 30.04 in 7.0 mi NNW 4.6 mph - N/A Rain Light Rain
6:25 PM 68.0 °F 64.4 °F 88% 30.04 in 7.0 mi Variable 5.8 mph - N/A   Light Drizzle
6:40 PM 66.2 °F 64.4 °F 94% 30.04 in 10.0 mi North 5.8 mph - N/A   Mostly Cloudy
6:43 PM 66.2 °F 64.4 °F 94% 30.04 in 10.0 mi North 6.9 mph - N/A   Light Drizzle
6:45 PM 66.2 °F 64.4 °F 94% 30.04 in 10.0 mi North 4.6 mph - N/A   Light Drizzle
6:52 PM 66.2 °F 64.4 °F 94% 30.04 in 10.0 mi North 6.9 mph - N/A   Light Drizzle
6:55 PM 66.9 °F 64.0 °F 90% 30.05 in 10.0 mi North 8.1 mph - 0.01 in   Light Drizzle
7:00 PM 66.2 °F 64.4 °F 94% 30.05 in 10.0 mi North 4.6 mph - N/A   Light Drizzle
7:11 PM 66.2 °F 64.4 °F 94% 30.06 in 10.0 mi North 4.6 mph - N/A   Light Drizzle
7:16 PM 66.2 °F 64.4 °F 94% 30.06 in 10.0 mi Calm Calm - N/A   Clear
7:17 PM 66.2 °F 64.4 °F 94% 30.06 in 10.0 mi Calm Calm - N/A   Light Drizzle
7:18 PM 66.2 °F 64.4 °F 94% 30.06 in 10.0 mi NNW 4.6 mph - N/A   Partly Cloudy
7:19 PM 66.2 °F 64.4 °F 94% 30.06 in 10.0 mi Variable 4.6 mph - N/A   Light Drizzle
7:29 PM 66.2 °F 64.4 °F 94% 30.06 in 8.0 mi North 5.8 mph - N/A   Light Drizzle
7:39 PM 66.2 °F 64.4 °F 94% 30.06 in 10.0 mi North 6.9 mph - N/A   Partly Cloudy
7:41 PM 66.2 °F 64.4 °F 94% 30.06 in 10.0 mi Variable 4.6 mph - N/A   Partly Cloudy
7:48 PM 66.2 °F 64.4 °F 94% 30.07 in 10.0 mi North 4.6 mph - N/A   Light Drizzle
7:55 PM 66.7 °F 63.5 °F 89% 30.07 in 10.0 mi North 4.6 mph - 0.00 in   Light Drizzle
7:58 PM 66.2 °F 62.6 °F 88% 30.07 in 10.0 mi North 4.6 mph - N/A   Clear
8:05 PM 66.2 °F 64.4 °F 94% 30.07 in 10.0 mi Variable 4.6 mph - N/A   Light Drizzle
8:10 PM 66.2 °F 62.6 °F 88% 30.08 in 10.0 mi Variable 6.9 mph - N/A   Light Drizzle
8:33 PM 66.2 °F 62.6 °F 88% 30.09 in 10.0 mi NNE 9.2 mph - N/A   Scattered Clouds
8:51 PM 66.2 °F 62.6 °F 88% 30.09 in 10.0 mi North 4.6 mph - N/A   Mostly Cloudy
8:52 PM 66.2 °F 62.6 °F 88% 30.09 in 10.0 mi North 3.5 mph - N/A   Light Drizzle
8:55 PM 66.9 °F 63.3 °F 88% 30.09 in 10.0 mi NNE 8.1 mph - 0.01 in   Light Drizzle
9:31 PM 66.2 °F 62.6 °F 88% 30.09 in 10.0 mi NE 5.8 mph - N/A   Scattered Clouds
9:34 PM 66.2 °F 62.6 °F 88% 30.09 in 10.0 mi NE 6.9 mph - N/A   Light Drizzle
9:55 PM 66.7 °F 62.8 °F 87% 30.09 in 10.0 mi NNE 5.8 mph - 0.00 in   Light Drizzle
10:02 PM 66.2 °F 62.6 °F 88% 30.08 in 10.0 mi NNE 9.2 mph - N/A   Partly Cloudy
10:09 PM 68.0 °F 62.6 °F 83% 30.09 in 10.0 mi NNE 5.8 mph - N/A   Light Drizzle
10:22 PM 68.0 °F 62.6 °F 83% 30.08 in 10.0 mi NNE 6.9 mph - N/A   Partly Cloudy
10:24 PM 68.0 °F 62.6 °F 83% 30.09 in 10.0 mi NNE 8.1 mph - N/A   Light Drizzle
10:36 PM 68.0 °F 62.6 °F 83% 30.08 in 10.0 mi North 6.9 mph - N/A   Partly Cloudy
10:55 PM 67.1 °F 62.6 °F 85% 30.08 in 10.0 mi North 6.9 mph - 0.00 in   Scattered Clouds
10:56 PM 68.0 °F 62.6 °F 83% 30.09 in 10.0 mi North 6.9 mph - N/A   Light Drizzle
11:01 PM 66.2 °F 62.6 °F 88% 30.09 in 10.0 mi North 9.2 mph - N/A   Light Drizzle
11:09 PM 66.2 °F 62.6 °F 88% 30.09 in 10.0 mi North 6.9 mph - N/A   Light Drizzle
11:29 PM 66.2 °F 62.6 °F 88% 30.08 in 10.0 mi North 5.8 mph - N/A   Partly Cloudy
11:55 PM 66.2 °F 62.6 °F 88% 30.08 in 10.0 mi NNW 6.9 mph - 0.00 in   Partly Cloudy
11:57 PM 66.2 °F 62.6 °F 88% 30.08 in 10.0 mi Variable 6.9 mph - N/A   Light Drizzle